Regional Weather Roundup
Issued by NWS

Home | Current Version | Previous Version | Text Only | Print | Product List | Glossary Off
Versions: 1 2 3 4 5 6 7 8 9 10 11 12 13 14 15 16 17 18 19 20 21 22 23 24 25 26 27 28 29 30 31 32 33 34 35 36 37 38 39 40 41 42 43 44 45 46 47 48 49 50

000
ASUS43 KLSX 311307
RWRMO

WEATHER SUMMARY FOR MISSOURI
NATIONAL WEATHER SERVICE SPRINGFIELD MO
800 AM CDT THU JUL 31 2014

NOTE: "FAIR" INDICATES FEW OR NO CLOUDS BELOW 12,000 FEET WITH NO
       SIGNIFICANT WEATHER AND/OR OBSTRUCTIONS TO VISIBILITY.
       CURRENT SKY AND/OR WEATHER CONDITIONS ARE NOT AVAILABLE FOR
       CHILLICOTHE AND FARMINGTON.

MOZ001>031-035>038-043-044-053-054-311400-
...NORTHERN AND WESTERN MISSOURI...

CITY           SKY/WX    TMP DP  RH WIND       PRES   REMARKS
KANSAS CTY INT MOSUNNY   64  59  83 N5        30.12R
KANSAS C DTWN  SUNNY     66  61  84 CALM      30.10S
LEE`S SUMMIT   SUNNY     65  60  84 CALM      30.12R
ST JOSEPH      SUNNY     58  58 100 CALM      30.12S
CHILLICOTHE      N/A     62  58  86 CALM      30.12S
KIRKSVILLE     SUNNY     65  60  84 CALM      30.12S

$$
MOZ066>068-077>081-088>096-101>105-311400-
...SOUTHWEST MISSOURI...

CITY           SKY/WX    TMP DP  RH WIND       PRES   REMARKS
SPRINGFIELD    MOSUNNY   67  64  90 NE5       30.11R
JOPLIN         PTSUNNY   66  65  96 VRB3      30.10S FOG

$$
MOZ032>034-039>042-045>050-055>058-069>072-311400-
...CENTRAL MISSOURI...

CITY           SKY/WX    TMP DP  RH WIND       PRES   REMARKS
COLUMBIA       SUNNY     66  60  81 CALM      30.11R
JEFFERSON CITY SUNNY     64  61  90 CALM      30.10R
ROLLA          SUNNY     66  61  84 CALM      30.09S
SEDALIA        SUNNY     66  62  87 CALM      30.11S
WHITEMAN AFB   SUNNY     63  57  82 CALM      30.10R
OSAGE BEACH    CLOUDY    59  57  94 CALM      30.10S

$$
MOZ051-052-059>065-311400-
...EAST CENTRAL MISSOURI...

CITY           SKY/WX    TMP DP  RH WIND       PRES   REMARKS
ST LOUIS INTL  MOSUNNY   71  62  73 CALM      30.10R
SPIRIT OF STL  SUNNY     65  61  87 CALM      30.09R
ST CHARLES     SUNNY     66  64  93 CALM      30.09S

$$
MOZ072>076-082>087-097>100-106>115-311400-
...SOUTH CENTRAL AND SOUTHEAST MISSOURI...

CITY           SKY/WX    TMP DP  RH WIND       PRES   REMARKS
CAPE GIRARDEAU MOSUNNY   66  64  93 CALM      30.10R FOG
FARMINGTON     MOSUNNY   61  61 100 CALM      30.13R
POPLAR BLUFF   CLOUDY    68  64  87 CALM      30.09R FOG
WEST PLAINS    PTSUNNY   67  64  90 E3        30.12R

$$



USA.gov is the U.S. government's official web portal to all federal, state and local government web resources and services.